Weather History for Wolf Point, MT

Change the Weather History Date:

Friday, October 4, 2013

  Actual Average Record
Temperature  
Mean Temperature 36 °F -  
Max Temperature 48 °F 65 °F 91 °F (2011)
Min Temperature 24 °F 34 °F 19 °F (2000)
Degree Days  
Heating Degree Days 29    
Cooling Degree Days 0    
Moisture  
Dew Point 25 °F    
Average Humidity 60    
Maximum Humidity 81    
Minimum Humidity 37    
Precipitation  
Precipitation 0.00 in 0.02 in 0.31 in (1998)
Month to date precipitation 0.00 0.10  
Year to date precipitation 12.79 10.78  
Sea Level Pressure  
Sea Level Pressure 30.45 in    
Wind  
Wind Speed 7 mph (NNE)    
Max Wind Speed 16 mph    
Max Gust Speed 21 mph    
Visibility 10 miles    
Events      
T = Trace of Precipitation, MM = Missing Value Source: NWS Daily Summary

Daily Weather History Graph

Daily Weather History Graph

Search for Another Location

Airport:

Trip Planner

Search our weather history database for the weather conditions in past years. The results will help you decide how hot, cold, wet, or windy it might be!

Date:

Astronomy

Oct. 04, 2013 Rise Set
Actual Time 7:06 AM MDT 6:34 PM MDT
Civil Twilight 6:35 AM MDT 7:05 PM MDT
Nautical Twilight 5:59 AM MDT 7:41 PM MDT
Astronomical Twilight 5:22 AM MDT 8:18 PM MDT
Moon 6:45 AM MDT (10/4) 6:15 PM MDT (10/4)
Length of Visible Light 12h 30m
Length of Day
11h 28m
Waning Crescent, 0% of the Moon is Illuminated
Oct 4
Waning Crescent
Oct 4
New
Oct 11
First Quarter
Oct 18
Full
Oct 26
Last Quarter

Hourly Weather History & Observations

Time (MDT) Temp. Windchill Dew Point Humidity Pressure Visibility Wind Dir Wind Speed Gust Speed Precip Events Conditions
12:53 AM 36.0 °F 33.3 °F 28.9 °F 76% 30.39 in 10.0 mi NNW 3.5 mph - N/A   Overcast
1:53 AM 37.9 °F 33.5 °F 30.0 °F 73% 30.40 in 10.0 mi North 5.8 mph - N/A   Overcast
2:53 AM 41.0 °F 35.8 °F 30.0 °F 65% 30.41 in 10.0 mi NNE 8.1 mph - N/A   Overcast
3:53 AM 39.9 °F 35.1 °F 28.9 °F 65% 30.43 in 10.0 mi NE 6.9 mph - N/A   Overcast
4:53 AM 39.9 °F 34.5 °F 28.0 °F 63% 30.44 in 10.0 mi North 8.1 mph - N/A   Overcast
5:53 AM 39.9 °F 33.9 °F 28.0 °F 63% 30.43 in 10.0 mi NNE 9.2 mph - N/A   Overcast
6:53 AM 37.9 °F 35.5 °F 27.0 °F 65% 30.48 in 10.0 mi Variable 3.5 mph - N/A   Overcast
7:53 AM 37.0 °F 31.0 °F 26.1 °F 65% 30.49 in 10.0 mi North 8.1 mph - N/A   Overcast
8:53 AM 39.0 °F 33.4 °F 27.0 °F 62% 30.49 in 10.0 mi NNE 8.1 mph - N/A   Overcast
9:53 AM 39.0 °F 30.6 °F 26.1 °F 60% 30.49 in 10.0 mi NNE 15.0 mph 19.6 mph N/A   Mostly Cloudy
10:53 AM 41.0 °F 33.1 °F 25.0 °F 53% 30.51 in 10.0 mi NNE 15.0 mph - N/A   Clear
11:53 AM 42.1 °F 34.5 °F 25.0 °F 51% 30.51 in 10.0 mi NNE 15.0 mph - N/A   Clear
12:53 PM 43.0 °F 36.4 °F 25.0 °F 49% 30.49 in 10.0 mi NNE 12.7 mph - N/A   Clear
1:53 PM 44.1 °F 38.6 °F 24.1 °F 45% 30.47 in 10.0 mi NNE 10.4 mph 20.7 mph N/A   Clear
2:53 PM 46.9 °F - 23.0 °F 39% 30.45 in 10.0 mi NNE 16.1 mph - N/A   Clear
3:53 PM 48.0 °F - 23.0 °F 37% 30.45 in 10.0 mi NE 11.5 mph 18.4 mph N/A   Clear
4:53 PM 46.9 °F - 21.9 °F 37% 30.44 in 10.0 mi North 12.7 mph - N/A   Clear
5:53 PM 46.9 °F - 23.0 °F 39% 30.43 in 10.0 mi ENE 6.9 mph - N/A   Clear
6:53 PM 41.0 °F 39.0 °F 23.0 °F 49% 30.43 in 10.0 mi North 3.5 mph - N/A   Clear
7:53 PM 30.9 °F 25.2 °F 21.9 °F 69% 30.44 in 10.0 mi NW 5.8 mph - N/A   Clear
8:53 PM 30.0 °F - 21.9 °F 72% 30.44 in 10.0 mi Calm Calm - N/A   Clear
9:53 PM 30.0 °F - 24.1 °F 79% 30.43 in 10.0 mi Calm Calm - N/A   Clear
10:53 PM 30.9 °F - 23.0 °F 72% 30.42 in 10.0 mi Calm Calm - N/A   Clear
11:53 PM 27.0 °F - 21.9 °F 81% 30.40 in 10.0 mi Calm Calm - N/A   Clear